Погода в Смидовиче

Погода в Смидовиче : погода сейчас, прогноз погоды и архив. Всё, что Вы хотите узнать о погоде в Смидовиче!

Поиск расширенной информации на нашем сайте:

Другие новости

Новости СМИ2

Главная страница сайта

Новости сайта

02.10.2013

Напоминаем, что на нашем новом сайте вы можете получить высокодетализированные прогнозы погоды по пунктам России, СНГ и мира (включающие важные для авиации метеовеличины, такие как направление и скорость ветра, видимость, явления погоды, количество и форма облачности, нижняя и верхняя граница облачности), а также ознакомиться с разнообразными материалами по авиационной метеорологии и подборкой полезных ссылок на эту тему.

Сайт Метеоцентр.Азия посвящён разработке технологий оптимизации авиаметеорологического обслуживания, включая проектирование и перспективное создание нескольких автоматизированных авиаметеорологических систем:
- система выпуска высокодетальных прогностических карт явлений погоды для нижнего воздушного пространства по России и ближнему зарубежью;
- система верификации прогнозов TAF (выпускаемых синоптиками официальных АМСГ РФ и ближнего зарубежья) и AUTOTAF (выпускаемых сайтом Метеоцентр.Азия) - выявление ошибок, онлайн-сопоставление с фактической погодой METAR, автоматическое внесение коррективов в прогнозы при резком отклонении фактической погоды от прогноза, подсчёт оправдываемости прогнозов по элементам и в целом;
- система обработки, анализа и отображения авиаметеорологической информации для применения провайдерами метеорологической информации.

Рекомендуем: Заказать пиццу в лазаревском дешево доставка sakuracafe.ru.

Погода в Смидовиче - сегодня

Время (UTC), дата Ветер
(°,м/с) 
Видим.   Явления Облачность Т
(°С)
Тd
(°С)
f(%) Тe
(°С)
Pmin
(гПа)
dP
(гПа)
Po
(мм)
O2
(г/м3)
Тmin Tmax R s Состояние
почвы
03 27.04.17 240 (ЮЗ) 20000 м    8/8 300 м 
[Sc diur, vesp]
+10.3 +0.2 49 +10  1001.1  -1.2  746  290           
06 27.04.17 310 (СЗ) 20000 м    8/8 600 м кучево-дожд. 
[Cb cap]
+10.7 +1 51 +11  999.6  -1.5  745  289           
09 27.04.17 220 (ЮЗ) 20000 м    8/4 600 м кучево-дожд., средняя, верхняя 
[Cb cap|Ac lent|Ci sp]
+10.9 +1 50 +12  998.8  -0.8  745  288    -12.3       
12 27.04.17 230 (ЮЗ) 20000 м    6/0 средняя, верхняя 
[Ac lent|Ci sp]
+6 +2.8 80 +7  999.5  0.6  745  293           
15 27.04.17 230 (ЮЗ) 20000 м    6/0 средняя, верхняя 
[Ac lent|Ci sp]
+2.8 +1.6 92 +4  999  -0.5  745  297           
18 27.04.17 130 (ЮВ) 20000 м    10/0 средняя 
[Ac und]
+1.9 +0.8 92 +3  998.1  -0.9  744  298           
21 27.04.17 240 (ЮЗ) 20000 м    8/3 600 м средняя, верхняя 
[Sc diur, vesp|Ac lent|Ci sp]
+1.9 +0.9 93 +3  997.6  -0.5  744  297  +0.4        мокрая 
00 28.04.17 280 (З) 20000 м    8/3 600 м средняя, верхняя 
[Sc diur, vesp|Ac lent|Ci fib]
+8.3 +3.8 73 +8  997.6  0.1  744  290           
03 28.04.17 190 (Ю) 20000 м    8/3 600 м средняя, верхняя 
[Sc diur, vesp|Ac lent|Ci fib]
+10.7 +3.1 59 +10  996.6  -1  743  288           
06 28.04.17 290 (З) 7-12{12}  20000 м    8/6 600 м кучево-дожд., средняя, верхняя 
[Cb cap|Ac lent|Ci fib]
+9.8 +2.7 61 +8  996  -0.5  743  288           
09 28.04.17 120 (ЮВ) 1{12}  20000 м    4/0 верхняя 
[Ci fib]
+9.9 +2.4 60 +11  996  0.1  743  288    +12.9  0.3     
12 28.04.17 110 (В) 20000 м    4/0 верхняя 
[Ci fib]
+3 +0.8 85 +4  996.8  0.6  743  296           
15 28.04.17 140 (ЮВ) 20000 м    4/0 верхняя 
[Ci fib]
+1.3 +0 91 +1  995.5  -1.3  742  298           
18 28.04.17 100 (В) 20000 м    ясно 
+2.7 +1.3 90 +3  994  -1.4  741  295           
21 28.04.17 230 (ЮЗ) 20000 м    8/6 600 м кучево-дожд., средняя, верхняя 
[Cb cap|Ac lent|Ci fib]
+2.7 +1.5 92 +3  993.3  -0.7  740  295  -0        мокрая 
00 29.04.17 тихо ()   20000 м    10/8 300 м средняя 
[Sc diur, vesp|Ac lent]
+7.4 +4.1 80 +7  993.1  0.1  740  290           
03 29.04.17 200 (Ю) 20000 м    10/10 300 м 
[Sc diur, vesp]
+10.8 +3.2 59 +12  992.3  -0.7  740  286           
06 29.04.17 210 (ЮЗ) 20000 м    10/10 600 м кучево-дожд. 
[Cb cap]
+10.1 +2.8 60 +9  991.9  -0.5  739  287           
09 29.04.17 100 (В) 20000 м    10/10 600 м кучево-дожд. 
[Cb cap]
+8.3 +4.6 77 +9  993.4  1.4  741  289    +12.1       
12 29.04.17 070 (В) 4000 м  слаб. ливневой дождь  10/10 600 м кучево-дожд. 
[Cb cap]
+6.6 +4.5 86 +6  994.1  0.8  741  291           
15 29.04.17 050 (СВ) 4000 м  слаб. ливневой дождь  10/10 600 м кучево-дожд. 
[Cb cap]
+6 +4.7 91 +4  994  -0.2  741  291           
18 29.04.17 030 (СВ) 4000 м  слаб. ливневой дождь  10/10 600 м кучево-дожд. 
[Cb cap]
+5.6 +4.2 91 +4  993.5  -0.5  741  292           
21 29.04.17 030 (СВ) 5{11}  20000 м  в посл. час ливневой дождь  10/10 600 м кучево-дожд. 
[Cb cap]
+5.4 +3.6 88 +3  994.7  1.3  742  292  +5.4      мокрая 
00 30.04.17 020 (С) 6-10{11}  20000 м  в посл. час ливневой дождь  10/10 600 м кучево-дожд. 
[Cb cap]
+6.1 +3.2 82 +4  996.7  743  292  +5.3         
03 30.04.17 020 (С) 5{12}  20000 м    10/10 600 м кучево-дожд. 
[Cb cap]
+8.3 +1.7 63 +7  998.9  2.2  745  291           
Время (UTC), дата Ветер
(°,м/с) 
Видим.   Явления Облачность Т
(°С)
Тd
(°С)
f(%) Тe
(°С)
Pmin
(гПа)
dP
(гПа)
Po
(мм)
O2
(г/м3)
Тmin Tmax R s Состояние
почвы

Для получения пояснительной информации подведите курсор к названию столбца.

ПОГОДА в Смидовиче - архив

Всё, что Вы хотите узнать о погоде в Смидовиче - удобно и подробно!

Выберите нужную дату (начиная с 1 января 2015* года) и нажмите кнопку "Найти".
Будут отображены архивные сводки погоды по пункту Смидович, начиная с указанной даты.


Отображать данные в формате CSV (для использования в таблицах Excel)


Внимание! Наш архив погоды предназначен исключительно для личного некоммерческого использования в познавательных целях. Если Вам необходимы официальные справки о состоянии погоды (для производственных, юридических, коммерческих и т.п. целей), обращайтесь в органы Росгидромета.

*Примечание: данная дата относится к архиву по метеостанциям СССР (Россия, СНГ, Балтия).
Архив по метеостанциям Зарубежной Европы и Азии (кроме Китая) хранится 10 дней, по другим регионам земного шара (Китай, Африка, Америка, Австралия, Океания) - 1 день.

Смидович - район местоположения метеостанции


Название, широта, долгота, высота метеостанции:
Смидович 48.6°ш. 133.8°д. 52 м над ур. моря [Российская Федерация]

Дополнительная информация

В oтличие oт бoльшинства пoгoдных сайтoв мы публикуем пoдрoбную метеoинфoрмацию в детальнoм прoфессиoнальнoм фoрмате.

Характеристики температуры и влажнoсти вoздуха измеряются на высoте 2 м в тени вдали oт зданий и деревьев.
Скoрoсть ветра измеряется на высoте 10 м (на урoвне рoста челoвека скoрoсть ветра ниже в 1.5-2 раза). Если метеoстанция нахoдится в гoрoде или в лесу, тo скoрoсть ветра занижена на 2-4 м/с пo сравнению с oткрытым местoм. Скoрoсть ветра над акватoриями крупных рек и oзёр, а также на вершинах хoлмoв на 2-5 м/с выше, чем в oбычных услoвиях.
Атмoсфернoе давление в разных тoчках местнoсти мoжет значительнo oтличаться oт давления на метеoстанции, в зависимoсти oт услoвий рельефа (при пoдъёме на 10 м давление пoнижается примернo на 1 мм рт.ст.).